Terminal Aerodrome Forecast
Issued by NWS Huntsville, AL

Home | Current Version | Previous Version | Text Only | Print | Product List | Glossary On
Versions: 1 2 3 4 5 6 7 8 9 10 11 12 13 14 15 16 17 18 19 20 21 22 23 24 25 26 27 28 29 30 31 32 33 34 35
000
FTUS44 KHUN 211140
TAFHSV
TAF
KHSV 211140Z 2112/2212 VRB03KT P6SM SCT035
     FM211400 34010KT P6SM FEW035
     FM220000 02005KT P6SM SKC=

USA.gov is the U.S. government's official web portal to all federal, state and local government web resources and services.